Weather History for Anaktuvuk Pass, AK

Change the Weather History Date:

Thursday, January 17, 2013

  Actual Average Record
Temperature  
Mean Temperature -22 °F -  
Max Temperature -18 °F -1 °F 39 °F (2009)
Min Temperature -25 °F -13 °F -45 °F (1998)
Degree Days  
Heating Degree Days 86    
Moisture  
Dew Point -29 °F    
Average Humidity 59    
Maximum Humidity 63    
Minimum Humidity 58    
Precipitation  
Precipitation 0.00 in - - ()
Sea Level Pressure  
Sea Level Pressure 30.13 in    
Wind  
Wind Speed 18 mph (NE)    
Max Wind Speed 22 mph    
Max Gust Speed 26 mph    
Visibility 3 miles    
Events      
Averages and records for this station are not official NWS values.
T = Trace of Precipitation, MM = Missing Value Source: NWS Daily Summary

Daily Weather History Graph

Daily Weather History Graph

Search for Another Location

Airport:

Trip Planner

Search our weather history database for the weather conditions in past years. The results will help you decide how hot, cold, wet, or windy it might be!

Date:

Astronomy

Jan. 17, 2013 Rise Set
Actual Time 11:30 AM AKST 3:04 PM AKST
Civil Twilight 9:55 AM AKST 4:40 PM AKST
Nautical Twilight 8:36 AM AKST 5:58 PM AKST
Astronomical Twilight 7:28 AM AKST 7:06 PM AKST
Moon 10:37 AM AKST (1/17) 12:59 AM AKST (1/17)
Length of Visible Light 6h 44m
Length of Day
3h 33m
Waxing Crescent, 39% of the Moon is Illuminated
Jan 17
Waxing Crescent
Jan 18
First Quarter
Jan 26
Full
Feb 3
Last Quarter
Feb 9
New

Hourly Weather History & Observations

Time (AKST) Temp. Windchill Dew Point Humidity Pressure Visibility Wind Dir Wind Speed Gust Speed Precip Events Conditions
12:16 AM -18.4 °F -47.1 °F -29.2 °F 58% 30.07 in 1.2 mi NE 21.9 mph 26.5 mph N/A   Overcast
12:36 AM -18.4 °F -45.9 °F -29.2 °F 58% 30.07 in 1.0 mi NE 19.6 mph 26.5 mph N/A   Overcast
12:56 AM -18.4 °F -45.2 °F -29.2 °F 58% 30.07 in 1.2 mi NE 18.4 mph 23.0 mph N/A   Overcast
1:16 AM -18.4 °F -45.2 °F -29.2 °F 58% 30.07 in 2.0 mi NE 18.4 mph 25.3 mph N/A   Overcast
1:36 AM -20.2 °F -47.5 °F - N/A% 30.07 in 1.5 mi NE 18.4 mph 23.0 mph N/A   Overcast
1:56 AM -18.4 °F -45.2 °F -29.2 °F 58% 30.07 in 1.8 mi NE 18.4 mph - N/A   Overcast
2:16 AM -18.4 °F -45.2 °F -29.2 °F 58% 30.07 in 2.0 mi NE 18.4 mph 24.2 mph N/A   Overcast
2:36 AM -18.4 °F -44.5 °F -29.2 °F 58% 30.07 in 2.0 mi NE 17.3 mph 24.2 mph N/A   Overcast
2:56 AM -20.2 °F -48.2 °F - N/A% 30.07 in 1.8 mi NE 19.6 mph 24.2 mph N/A   Overcast
3:16 AM -18.4 °F -46.5 °F -29.2 °F 58% 30.06 in 2.0 mi NE 20.7 mph 26.5 mph N/A   Overcast
3:36 AM -20.2 °F -48.2 °F -29.2 °F 63% 30.07 in 1.5 mi NE 19.6 mph 26.5 mph N/A   Overcast
3:56 AM -20.2 °F -47.5 °F - N/A% 30.07 in 1.5 mi NE 18.4 mph 25.3 mph N/A   Overcast
4:16 AM -20.2 °F -47.5 °F - N/A% 30.07 in 2.0 mi NE 18.4 mph 23.0 mph N/A   Overcast
4:36 AM -20.2 °F -46.8 °F - N/A% 30.07 in 1.5 mi NE 17.3 mph - N/A   Overcast
4:56 AM -20.2 °F -46.8 °F - N/A% 30.07 in 1.5 mi NE 17.3 mph 21.9 mph N/A   Overcast
5:16 AM -20.2 °F -48.9 °F - N/A% 30.06 in 1.8 mi NE 20.7 mph 26.5 mph N/A   Overcast
5:36 AM -20.2 °F -47.5 °F - N/A% 30.06 in 1.5 mi NE 18.4 mph 25.3 mph N/A   Overcast
5:56 AM -22.0 °F -49.9 °F - N/A% 30.06 in 1.8 mi ENE 18.4 mph 24.2 mph N/A   Overcast
6:16 AM -22.0 °F -48.4 °F - N/A% 30.07 in 2.0 mi NE 16.1 mph 24.2 mph N/A   Overcast
6:36 AM -22.0 °F -50.6 °F - N/A% 30.06 in 2.0 mi NE 19.6 mph 24.2 mph N/A   Overcast
6:56 AM -20.2 °F -48.9 °F - N/A% 30.06 in 2.0 mi NE 20.7 mph 26.5 mph N/A   Overcast
7:16 AM -22.0 °F -47.5 °F - N/A% 30.06 in 2.0 mi NE 15.0 mph 24.2 mph N/A   Overcast
7:36 AM -23.8 °F -49.8 °F - N/A% 30.06 in 2.5 mi NE 15.0 mph 25.3 mph N/A   Overcast
7:56 AM -23.8 °F -51.5 °F - N/A% 30.07 in 3.0 mi NE 17.3 mph 21.9 mph N/A   Overcast
8:16 AM -22.0 °F -49.9 °F - N/A% 30.07 in 3.0 mi NE 18.4 mph - N/A   Mostly Cloudy
8:36 AM -23.8 °F -51.5 °F - N/A% 30.07 in 3.0 mi NE 17.3 mph - N/A   Overcast
8:56 AM -23.8 °F -52.9 °F - N/A% 30.07 in 3.0 mi NE 19.6 mph - N/A   Overcast
9:16 AM -23.8 °F -52.9 °F - N/A% 30.07 in 3.0 mi NE 19.6 mph - N/A   Overcast
9:36 AM -22.0 °F -49.1 °F - N/A% 30.08 in 3.0 mi NE 17.3 mph - N/A   Overcast
9:56 AM -22.0 °F -49.9 °F - N/A% 30.09 in 5.0 mi NE 18.4 mph - N/A   Scattered Clouds
10:16 AM -23.8 °F -49.8 °F - N/A% 30.09 in 5.0 mi ENE 15.0 mph - N/A   Clear
10:36 AM -23.8 °F -48.9 °F - N/A% 30.10 in 3.0 mi ENE 13.8 mph 19.6 mph N/A   Clear
10:56 AM -23.8 °F -50.7 °F - N/A% 30.10 in 3.0 mi ENE 16.1 mph - N/A   Scattered Clouds
11:16 AM -23.8 °F -49.8 °F - N/A% 30.10 in 3.0 mi ENE 15.0 mph 20.7 mph N/A   Scattered Clouds
11:36 AM -23.8 °F -48.9 °F - N/A% 30.11 in 2.5 mi ENE 13.8 mph 19.6 mph N/A   Scattered Clouds
11:56 AM -23.8 °F -48.9 °F - N/A% 30.11 in 1.8 mi ENE 13.8 mph - N/A   Overcast
12:16 PM -23.8 °F -49.8 °F - N/A% 30.12 in 2.5 mi ENE 15.0 mph 19.6 mph N/A   Overcast
12:36 PM -23.8 °F -49.8 °F - N/A% 30.12 in 2.0 mi ENE 15.0 mph 19.6 mph N/A   Overcast
12:56 PM -22.0 °F -51.3 °F - N/A% 30.13 in 2.5 mi ENE 20.7 mph 24.2 mph N/A   Overcast
1:16 PM -22.0 °F -49.1 °F - N/A% 30.13 in 2.5 mi ENE 17.3 mph - N/A   Overcast
1:36 PM -23.8 °F -51.5 °F - N/A% 30.14 in 3.0 mi ENE 17.3 mph - N/A   Overcast
1:56 PM -23.8 °F -51.5 °F - N/A% 30.14 in 2.5 mi ENE 17.3 mph - N/A   Overcast
2:16 PM -23.8 °F -49.8 °F - N/A% 30.14 in 2.0 mi ENE 15.0 mph - N/A   Overcast
2:36 PM -25.6 °F -53.0 °F - N/A% 30.14 in 1.5 mi ENE 16.1 mph 21.9 mph N/A   Overcast
2:56 PM -23.8 °F -50.7 °F - N/A% 30.15 in 1.8 mi ENE 16.1 mph 21.9 mph N/A   Overcast
3:16 PM -23.8 °F -50.7 °F - N/A% 30.15 in 1.2 mi ENE 16.1 mph 20.7 mph N/A   Overcast
3:36 PM -23.8 °F -49.8 °F - N/A% 30.16 in 1.5 mi ENE 15.0 mph 21.9 mph N/A   Overcast
3:56 PM -23.8 °F -48.9 °F - N/A% 30.16 in 2.5 mi ENE 13.8 mph - N/A   Overcast
4:16 PM -23.8 °F -49.8 °F - N/A% 30.17 in 5.0 mi ENE 15.0 mph 19.6 mph N/A   Overcast
4:36 PM -23.8 °F -48.9 °F - N/A% 30.17 in 5.0 mi NE 13.8 mph - N/A   Overcast
4:56 PM -23.8 °F -50.7 °F - N/A% 30.17 in 4.0 mi ENE 16.1 mph - N/A   Overcast
5:16 PM -23.8 °F -51.5 °F - N/A% 30.18 in 2.0 mi ENE 17.3 mph - N/A   Overcast
5:36 PM -23.8 °F -49.8 °F - N/A% 30.18 in 3.0 mi NE 15.0 mph 20.7 mph N/A   Overcast
5:56 PM -23.8 °F -51.5 °F - N/A% 30.18 in 3.0 mi NE 17.3 mph 23.0 mph N/A   Overcast
6:16 PM -22.0 °F -49.9 °F - N/A% 30.19 in 3.0 mi NE 18.4 mph 23.0 mph N/A   Overcast
6:36 PM -22.0 °F -49.9 °F - N/A% 30.19 in 5.0 mi NE 18.4 mph - N/A   Overcast
6:56 PM -22.0 °F -49.9 °F - N/A% 30.20 in 7.0 mi NE 18.4 mph 23.0 mph N/A   Overcast
7:16 PM -23.8 °F -52.2 °F - N/A% 30.21 in 3.0 mi NE 18.4 mph 23.0 mph N/A   Overcast
7:36 PM -23.8 °F -51.5 °F - N/A% 30.22 in 3.0 mi NE 17.3 mph 24.2 mph N/A   Overcast
7:56 PM -23.8 °F -51.5 °F - N/A% 30.22 in 5.0 mi NE 17.3 mph - N/A   Overcast
8:16 PM -22.0 °F -49.1 °F - N/A% 30.23 in 6.0 mi NE 17.3 mph 21.9 mph N/A   Mostly Cloudy
8:36 PM -23.8 °F -51.5 °F - N/A% 30.23 in 5.0 mi NE 17.3 mph - N/A   Clear
8:56 PM -22.0 °F -49.9 °F - N/A% 30.23 in 8.0 mi NE 18.4 mph 23.0 mph N/A   Partly Cloudy
9:16 PM -22.0 °F -48.4 °F - N/A% 30.24 in 8.0 mi NE 16.1 mph - N/A   Mostly Cloudy
9:36 PM -20.2 °F -44.4 °F - N/A% 30.24 in 10.0 mi NE 13.8 mph - N/A   Mostly Cloudy
9:56 PM -22.0 °F -46.6 °F - N/A% 30.25 in 8.0 mi NE 13.8 mph 20.7 mph N/A   Clear
10:16 PM -22.0 °F -48.4 °F - N/A% 30.25 in 5.0 mi NE 16.1 mph 21.9 mph N/A   Clear
10:36 PM -22.0 °F -49.1 °F - N/A% 30.25 in 4.0 mi ENE 17.3 mph 20.7 mph N/A   Clear
10:56 PM -20.2 °F -46.0 °F - N/A% 30.26 in 4.0 mi NE 16.1 mph 23.0 mph N/A   Clear
11:16 PM -20.2 °F -46.0 °F - N/A% 30.26 in 10.0 mi NE 16.1 mph 21.9 mph N/A   Clear
11:36 PM -22.0 °F -44.7 °F - N/A% 30.27 in 10.0 mi NNE 11.5 mph 18.4 mph N/A   Clear
11:56 PM -22.0 °F -48.4 °F - N/A% 30.27 in 10.0 mi NE 16.1 mph 20.7 mph N/A   Clear